Location: Newark
(35.0033°N, 81.0878°W)
Time: 06:33:50
(UTC+00:00)

Envisat - Pass Details

Date: 27 October 2020
Orbit: 764 x 766 km, 98.1° (Epoch: 30 November)

Event Time Altitude Azimuth Distance (km) Brightness Sun altitude
Rises 23:12:58 0° 187° (S) 3,217 6.5 -8.5°
Reaches altitude 10° 23:15:26 10° 195° (SSW) 2,295 5.8 -9.0°
Maximum altitude 23:20:05 37° 262° (W) 1,182 4.8 -9.9°
Drops below altitude 10° 23:24:46 10° 329° (NNW) 2,308 5.8 -10.9°
Sets 23:27:15 0° 338° (NNW) 3,238 6.4 -11.4°
